This is the latest recevied weather packets stored in our database for station/object K5GHS-1. If no packets are shown the sender has not sent any weather packets the latest 10 day(s).
| Time | Temp. | Humidity | Pressure | Rain* | Wind** | Luminosity | Snow |
|---|---|---|---|---|---|---|---|
| 1777299334 | 26.11° C | 81% | 1005.8 hPa | 0 mm | - | 212 W/m² | - |
| 1777299031 | 26.11° C | 81% | 1005.8 hPa | 0 mm | - | 201 W/m² | - |
| 1777298728 | 25.56° C | 82% | 1005.8 hPa | 0 mm | - | 177 W/m² | - |
| 1777298424 | 25.56° C | 83% | 1005.7 hPa | 0 mm | - | 157 W/m² | - |
| 1777298121 | 25.56° C | 83% | 1005.7 hPa | 0 mm | - | 129 W/m² | - |
| 1777297815 | 25° C | 83% | 1005.8 hPa | 0 mm | - | 120 W/m² | - |
| 1777297514 | 25° C | 84% | 1005.6 hPa | 0 mm | - | 104 W/m² | - |
| 1777297210 | 25° C | 84% | 1005.8 hPa | 0 mm | - | 138 W/m² | - |
| 1777296908 | 25° C | 84% | 1005.5 hPa | 0 mm | - | 95 W/m² | - |
| 1777296603 | 25° C | 84% | 1005.6 hPa | 0 mm | - | 84 W/m² | - |
| 1777296274 | 25° C | 84% | 1005.6 hPa | 0 mm | - | 96 W/m² | - |
| 1777295970 | 24.44° C | 85% | 1005.5 hPa | 0 mm | - | 87 W/m² | - |
| 1777295668 | 24.44° C | 85% | 1005.6 hPa | 0 mm | - | 70 W/m² | - |
| 1777295365 | 24.44° C | 85% | 1005.6 hPa | 0 mm | - | 66 W/m² | - |
| 1777295063 | 24.44° C | 85% | 1005.6 hPa | 0 mm | - | 67 W/m² | - |
| 1777294759 | 24.44° C | 85% | 1005.4 hPa | 0 mm | - | 59 W/m² | - |
| 1777294454 | 24.44° C | 85% | 1005.3 hPa | 0 mm | - | 52 W/m² | - |
| 1777294152 | 24.44° C | 85% | 1005.3 hPa | 0 mm | - | 47 W/m² | - |
| 1777293849 | 24.44° C | 85% | 1005.2 hPa | 0 mm | - | 34 W/m² | - |
| 1777293544 | 23.89° C | 86% | 1005.4 hPa | 0 mm | - | 31 W/m² | - |
| 1777293239 | 23.89° C | 86% | 1005.1 hPa | 0 mm | - | 33 W/m² | - |
| 1777292938 | 23.89° C | 86% | 1005 hPa | 0 mm | - | 29 W/m² | - |
| 1777292634 | 23.89° C | 86% | 1005.2 hPa | 0 mm | - | 24 W/m² | - |
| 1777292330 | 23.89° C | 86% | 1005 hPa | 0 mm | - | 20 W/m² | - |
| 1777292026 | 23.89° C | 86% | 1005 hPa | 0 mm | - | 16 W/m² | - |
* Rain latest hour (hover to see other rain measurements)
** Current wind speed in m/s (hover to see current wind gust speed)